Location: Seattle
(47.6064°N, 122.3308°W)
Time: 00:40:44
(UTC-08:00)

Tiros 1 - Pass Details

Date: 03 December 2020
Orbit: 630 x 663 km, 48.4° (Epoch: 28 January)

Event Time Altitude Azimuth Distance (km) Brightness Sun altitude
Rises 13:36:48 0° 223° (SW) 2,982 11.9 16.8°
Reaches altitude 10° 13:39:16 10° 215° (SW) 2,074 11.9 16.6°
Maximum altitude 13:43:41 37° 148° (SSE) 1,020 8.8 16.3°
Drops below altitude 10° 13:48:06 10° 81° (E) 2,081 9.5 16.0°
Sets 13:50:35 0° 74° (ENE) 2,993 10.2 15.8°
